Regional Weather Roundup
Issued by NWS

Home | Current Version | Previous Version | Graphics & Text | Print | Product List | Glossary On
Versions: 1 2 3 4 5 6 7 8 9 10 11 12 13 14 15 16 17 18 19 20 21 22 23 24 25 26 27 28 29 30 31 32 33 34 35 36 37 38 39 40 41 42 43 44 45 46 47 48 49 50
000
ASUS43 KLOT 250408
RWRIL

ILLINOIS REGIONAL WEATHER ROUNDUP
NATIONAL WEATHER SERVICE CHICAGO/ROMEOVILLE IL
1100 PM CDT THU MAY 24 2018

NOTE: "FAIR" INDICATES FEW OR NO CLOUDS BELOW 12,000 FEET WITH NO
SIGNIFICANT WEATHER AND/OR OBSTRUCTIONS TO VISIBILITY.

* THESE STATIONS ARE NOT UNDER NWS QUALITY CONTROL. THEY ALSO MAY NOT
  REPORT WEATHER SUCH AS PRECIPITATION OR FOG.

ILZ001-002-007-009-015-016-024-250500-
NORTHWEST ILLINOIS

CITY           SKY/WX    TMP DP  RH WIND       PRES   REMARKS
MOLINE         FAIR      73  60  63 S3        29.99S
STERLING*      FAIR      73  61  65 SE3       30.01S
SAVANNA*       FAIR      71  62  74 S5        30.00S
$$

ILZ003-004-008-010-011-017-018-250500-
NORTH CENTRAL ILLINOIS

CITY           SKY/WX    TMP DP  RH WIND       PRES   REMARKS
ROCKFORD       FAIR      70  59  68 SW5       30.03R
FREEPORT*      FAIR      70  60  70 S8        30.03S
ROCHELLE*      FAIR      71  59  66 SE7       30.03S
DE KALB*       FAIR      71  58  63 SE8       30.04S
PERU*          FAIR      77  64  63 E6        30.02S
$$

ILZ005-006-012>014-019>023-250500-
NORTHEAST ILLINOIS

CITY           SKY/WX    TMP DP  RH WIND       PRES   REMARKS
CHICAGO-OHARE  FAIR      72  53  51 SE6       30.02F
CHICAGO-MIDWAY FAIR      73  55  53 SE6       30.03S
AURORA         FAIR      71  57  61 SE6       30.03S
LANSING*       FAIR      71  56  58 S3        30.04S
JOLIET*        FAIR      72  56  57 CALM      30.03F
WAUKEGAN       FAIR      69  53  56 S8        30.02F
DUPAGE AIRPORT FAIR      70  57  63 SE7       30.02F
KANKAKEE*      FAIR      69  49  50 SE7       30.05F
WHEELING       FAIR      70  57  63 S3        30.04F
MORRIS*        FAIR      73  54  52 SE6       30.02S
ROMEOVILLE*    FAIR      70  56  61 SE7       30.04S
NORTHERLY ISL    N/A     63  53  70 S2          N/A
$$

LMZ740>746-250500-
SOUTHERN LAKE MICHIGAN

STATION/POSITION SKY/WX   TEMP    WIND        PRES    VSBY  WAVE
                          AIR SEA DIR/SP/G                  HT/PER
                          (F)     (DEG/KT/KT) (MB)    (MI)  (FT/S)
SOUTHERN BUOY              53 39  150/ 10/ 10 1017.2F         0
WILMETTE HARBOR            61 56  150/  8/ 10   N/A           1
HARRISON CRIB              67     170/ 10/ 11   N/A
BURNHAM HARBOR             63     170/  2/  3   N/A
CALUMET HARBOR             67     140/  2/  2 1016.7F
BURNS HARBOR               76     160/  4/ 10 1017.6F
MICHIGAN CITY              72     130/  8/  8   N/A
MICHIGAN CITY 6N           66 60  150/  6/  6   N/A           0
ST. JOSEPH                 64 58  170/  6/  6 1017.4          0
$$

ILZ025>027-034>036-040-047-049-050-058-095>099-250500-
WEST-CENTRAL ILLINOIS

CITY           SKY/WX    TMP DP  RH WIND       PRES   REMARKS
QUINCY         CLEAR     73  61  65 SE6       30.02S
GALESBURG*     FAIR      68  60  75 CALM      30.03S
MACOMB*        CLEAR     69  60  73 S6        30.04R
JACKSONVILLE*  CLEAR     75  60  59 S5        30.03S
PITTSFIELD*    CLEAR     73  66  78 CALM      30.04S
$$

ILZ028>032-037-038-041>044-048-051>054-059>061-250500-
CENTRAL ILLINOIS

CITY           SKY/WX    TMP DP  RH WIND       PRES   REMARKS
PONTIAC        FAIR      75  55  50 S7        30.04S
BLOOMINGTON    FAIR      73  53  49 SE10      30.05F
DECATUR        FAIR      72  56  57 S7        30.04F
PEORIA         FAIR      73  62  68 CALM      30.02S
LACON*         FAIR      71  61  72 CALM      30.00F
LINCOLN*       FAIR      73  58  60 CALM      30.03S
SPRINGFIELD    FAIR      73  59  61 S5        30.03S
TAYLORVILLE    FAIR      70  61  72 SE5       30.04S
$$

ILZ033-039-045-046-055>057-062-063-250500-
EAST-CENTRAL ILLINOIS

CITY           SKY/WX    TMP DP  RH WIND       PRES   REMARKS
CHAMPAIGN      FAIR      69  55  60 S5        30.06S
DANVILLE*      FAIR      68  53  59 SE5       30.05S
RANTOUL*       FAIR      74  54  49 S5        30.06S
MATTOON        FAIR      67  61  81 S5        30.05S
PARIS*         FAIR      69  57  65 SE3       30.07F
$$

ILZ079-100>102-250500-
SOUTHWEST ILLINOIS

CITY           SKY/WX    TMP DP  RH WIND       PRES   REMARKS
ALTON          CLEAR     68  65  91 CALM      30.04R
BELLEVILLE     CLEAR     71  62  74 CALM      30.02S
CAHOKIA*       CLEAR     73  62  68 S3        30.03R
SPARTA*        CLEAR     73  65  78 CALM      30.05S
$$

ILZ064>066-069>071-074>076-080>082-084>086-088>090-092>094-250500-
SOUTH-CENTRAL ILLINOIS

CITY           SKY/WX    TMP DP  RH WIND       PRES   REMARKS
CARBONDALE     FAIR      69  64  84 CALM      30.03F
CAIRO*         FAIR      72  69  91 CALM      30.04S
EFFINGHAM*     FAIR      67  59  76 CALM      30.06F
MARION         FAIR      69  61  75 CALM      30.05S
MT. VERNON     FAIR      61  60  97 CALM      30.05S
CENTRALIA*     CLEAR     69  64  83 CALM      30.03F
SALEM*         FAIR      70  60  72 CALM      30.05S
METROPOLIS*    FAIR      70  66  87 CALM      30.04F FOG
$$

ILZ067-068-072-073-078-083-087-091-250500-
SOUTHEAST ILLINOIS

CITY           SKY/WX    TMP DP  RH WIND       PRES   REMARKS
LAWRENCEVILLE  FAIR      72  56  57 CALM      30.06S
FLORA*         FAIR      71  58  65 CALM      30.05S
FAIRFIELD*     FAIR      68  58  70 CALM      30.04S
HARRISBURG*    FAIR      69  65  86 CALM      30.05S
ROBINSON*      FAIR      65  60  82 CALM      30.07S
CARMI*         FAIR      67  64  88 CALM      30.04S
$$

ABBREVIATIONS USED IN REMARKS
   TC - TEMPERATURE IN CELSIUS
  WCI - WIND CHILL INDEX
   HX - HEAT INDEX
  VSB - VISIBILITY
$$





USA.gov is the U.S. government's official web portal to all federal, state and local government web resources and services.